����,���ϕ���(m/s),���ϕ���,�ő�u�ԕ���(m/s),�ő啗��������,�C��(��),���x(%),10���Ԉړ��ώZ�J��(mm),1���Ԉړ��ώZ�J��(mm),���J��(mm),�݌v�J��(mm)
2022-07-18T00:00:00+09:00,0.5,�k�k��,1.3,�k�k��,23.9,93.9,0,0,0,0
2022-07-18T00:01:00+09:00,0.5,�k�k��,1.3,�k�k��,23.8,93.9,0,0,0,0
2022-07-18T00:02:00+09:00,0.4,�k�k��,1.2,�k��,24,94.4,0,0,0,0
2022-07-18T00:03:00+09:00,0.3,�k�k��,0.9,�k,24,94.4,0,0,0,0
2022-07-18T00:04:00+09:00,0.3,�k��,0.9,�k,24,94.1,0,0,0,0
2022-07-18T00:05:00+09:00,0.2,�É�,0.7,�k�k��,24,94.1,0,0,0,0
2022-07-18T00:06:00+09:00,0.2,�É�,0.7,�k�k��,23.9,93.7,0,0,0,0
2022-07-18T00:07:00+09:00,0.2,�É�,0.5,���k��,23.8,93.4,0,0,0,0
2022-07-18T00:08:00+09:00,0.2,�É�,0.5,���k��,23.8,93.5,0,0,0,0
2022-07-18T00:09:00+09:00,0.2,�É�,0.9,���k��,23.6,93.5,0,0,0,0
2022-07-18T00:10:00+09:00,0.2,�É�,0.9,���k��,23.6,93.8,0,0,0,0
2022-07-18T00:11:00+09:00,0.3,�k,1,���k��,23.5,93.8,0,0,0,0
2022-07-18T00:12:00+09:00,0.4,�k�k��,1.4,��,23.4,94.1,0,0,0,0
2022-07-18T00:13:00+09:00,0.4,�k��,1.4,��,23.4,94.7,0,0,0,0
2022-07-18T00:14:00+09:00,0.5,�k��,1.4,��,23.4,95,0,0,0,0
2022-07-18T00:15:00+09:00,0.5,�k��,1.4,��,23.3,95,0,0,0,0
2022-07-18T00:16:00+09:00,0.6,�k��,1.4,��,23.3,95.1,0,0,0,0
2022-07-18T00:17:00+09:00,0.7,�k��,1.4,��,23.2,95.2,0,0,0,0
2022-07-18T00:18:00+09:00,0.7,�k��,1.4,��,23.2,95.4,0,0,0,0
2022-07-18T00:19:00+09:00,0.7,�k��,1.4,��,23.4,95.7,0,0,0,0
2022-07-18T00:20:00+09:00,0.6,���k��,1.4,��,23.4,95.8,0,0,0,0
2022-07-18T00:21:00+09:00,0.6,���k��,1.4,��,23.3,95.7,0,0,0,0
2022-07-18T00:22:00+09:00,0.6,���k��,1.2,���k��,23.4,95.8,0,0,0,0
2022-07-18T00:23:00+09:00,0.5,���k��,1.2,���k��,23.3,95.8,0,0,0,0
2022-07-18T00:24:00+09:00,0.5,���k��,1.2,���k��,23.4,95.8,0,0,0,0
2022-07-18T00:25:00+09:00,0.6,���k��,1.4,���k��,23.3,95.8,0,0,0,0
2022-07-18T00:26:00+09:00,0.6,���k��,1.4,���k��,23.3,95.5,0,0,0,0
2022-07-18T00:27:00+09:00,0.6,���k��,1.4,���k��,23.2,95.5,0,0,0,0
2022-07-18T00:28:00+09:00,0.6,���k��,1.4,���k��,23.2,95.5,0,0,0,0
2022-07-18T00:29:00+09:00,0.6,���k��,1.4,���k��,23.2,95.6,0,0,0,0
2022-07-18T00:30:00+09:00,0.7,���k��,1.4,���k��,23.2,95.6,0,0,0,0
2022-07-18T00:31:00+09:00,0.7,���k��,1.4,���k��,23.2,95.7,0,0,0,0
2022-07-18T00:32:00+09:00,0.8,���k��,1.4,���k��,23.2,95.7,0,0,0,0
2022-07-18T00:33:00+09:00,0.8,���k��,1.4,���k��,23.2,95.8,0,0,0,0
2022-07-18T00:34:00+09:00,0.8,���k��,1.4,���k��,23.2,95.8,0,0,0,0
2022-07-18T00:35:00+09:00,0.7,���k��,1.3,���k��,23.4,96,0,0,0,0
2022-07-18T00:36:00+09:00,0.6,���k��,1.2,���k��,23.4,95.9,0,0,0,0
2022-07-18T00:37:00+09:00,0.5,��,1.2,���k��,23.7,96.1,0,0,0,0
2022-07-18T00:38:00+09:00,0.4,��,1.2,���k��,23.5,95.8,0,0,0,0
2022-07-18T00:39:00+09:00,0.4,��,1.2,���k��,23.5,95.3,0,0,0,0
2022-07-18T00:40:00+09:00,0.3,��,1.2,���k��,23.5,95.3,0,0,0,0
2022-07-18T00:41:00+09:00,0.2,�É�,1.2,���k��,23.4,95.1,0,0,0,0
2022-07-18T00:42:00+09:00,0.2,�É�,0.9,�k��,23.3,94.9,0,0,0,0
2022-07-18T00:43:00+09:00,0.1,�É�,0.6,���k��,23.3,94.8,0,0,0,0
2022-07-18T00:44:00+09:00,0.1,�É�,0.6,���k��,23.4,95.2,0,0,0,0
2022-07-18T00:45:00+09:00,0.1,�É�,0.6,���k��,23.6,95.2,0,0,0,0
2022-07-18T00:46:00+09:00,0.1,�É�,0.6,���k��,23.6,95.1,0,0,0,0
2022-07-18T00:47:00+09:00,0.1,�É�,0.6,���k��,23.4,94.5,0,0,0,0
2022-07-18T00:48:00+09:00,0.1,�É�,0.6,���k��,23.4,94,0,0,0,0
2022-07-18T00:49:00+09:00,0.1,�É�,0.6,���k��,23.6,94.7,0,0,0,0
2022-07-18T00:50:00+09:00,0.1,�É�,0.6,���k��,23.6,94.3,0,0,0,0
2022-07-18T00:51:00+09:00,0.1,�É�,0.4,���k��,23.7,94.2,0,0,0,0
2022-07-18T00:52:00+09:00,0.1,�É�,0.5,���k��,23.7,93.8,0,0,0,0
2022-07-18T00:53:00+09:00,0.1,�É�,0.5,���k��,23.6,93.1,0,0,0,0
2022-07-18T00:54:00+09:00,0.1,�É�,0.5,���k��,23.5,92.9,0,0,0,0
2022-07-18T00:55:00+09:00,0.1,�É�,0.5,���k��,23.6,93.4,0,0,0,0
2022-07-18T00:56:00+09:00,0.1,�É�,0.5,���k��,23.5,93.3,0,0,0,0
2022-07-18T00:57:00+09:00,0.1,�É�,0.5,���k��,23.4,93.4,0,0,0,0
2022-07-18T00:58:00+09:00,0.1,�É�,0.5,���k��,23.4,93.3,0,0,0,0
2022-07-18T00:59:00+09:00,0.2,�É�,0.8,���쓌,23.4,93.5,0,0,0,0
2022-07-18T01:00:00+09:00,0.2,�É�,0.8,���쓌,23.3,93.5,0,0,0,0
2022-07-18T01:01:00+09:00,0.3,���k��,0.9,��,23.3,93.8,0,0,0,0
2022-07-18T01:02:00+09:00,0.3,���k��,0.9,��,23.2,94,0,0,0,0
2022-07-18T01:03:00+09:00,0.3,���k��,0.9,��,23.2,94.3,0,0,0,0
2022-07-18T01:04:00+09:00,0.4,���k��,0.9,��,23.2,94.4,0,0,0,0
2022-07-18T01:05:00+09:00,0.4,���k��,1.1,���k��,23.1,94.5,0,0,0,0
2022-07-18T01:06:00+09:00,0.5,���k��,1.1,���k��,23.1,94.7,0,0,0,0
2022-07-18T01:07:00+09:00,0.6,���k��,1.1,���k��,23.1,95.1,0,0,0,0
2022-07-18T01:08:00+09:00,0.6,���k��,1.1,���k��,23.1,95.2,0,0,0,0
2022-07-18T01:09:00+09:00,0.7,���k��,1.1,���k��,23.1,95.2,0,0,0,0
2022-07-18T01:10:00+09:00,0.7,���k��,1.1,���k��,23,95.3,0,0,0,0
2022-07-18T01:11:00+09:00,0.7,���k��,1.1,���k��,23,95.3,0,0,0,0
2022-07-18T01:12:00+09:00,0.7,���k��,1.1,���k��,23,95.4,0,0,0,0
2022-07-18T01:13:00+09:00,0.7,���k��,1.1,���k��,23,95.6,0,0,0,0
2022-07-18T01:14:00+09:00,0.8,���k��,1.2,���k��,23,95.6,0,0,0,0
2022-07-18T01:15:00+09:00,0.8,���k��,1.2,���k��,22.9,95.5,0,0,0,0
2022-07-18T01:16:00+09:00,0.8,���k��,1.2,���k��,22.9,95.6,0,0,0,0
2022-07-18T01:17:00+09:00,0.8,���k��,1.2,���k��,22.9,95.7,0,0,0,0
2022-07-18T01:18:00+09:00,0.8,���k��,1.2,���k��,22.9,95.8,0,0,0,0
2022-07-18T01:19:00+09:00,0.8,���k��,1.2,���k��,22.9,95.8,0,0,0,0
2022-07-18T01:20:00+09:00,0.8,���k��,1.2,���k��,22.9,95.9,0,0,0,0
2022-07-18T01:21:00+09:00,0.8,���k��,1.2,���k��,22.9,96,0,0,0,0
2022-07-18T01:22:00+09:00,0.8,���k��,1.2,���k��,22.9,95.9,0,0,0,0
2022-07-18T01:23:00+09:00,0.8,���k��,1.2,���k��,22.9,96,0,0,0,0
2022-07-18T01:24:00+09:00,0.7,���k��,1.2,���k��,23,96.1,0,0,0,0
2022-07-18T01:25:00+09:00,0.7,���k��,1.2,���k��,23,96,0,0,0,0
2022-07-18T01:26:00+09:00,0.6,���k��,1.2,���k��,23,95.9,0,0,0,0
2022-07-18T01:27:00+09:00,0.6,���k��,1.2,���k��,23,95.9,0,0,0,0
2022-07-18T01:28:00+09:00,0.5,���k��,1.2,���k��,23,95.9,0,0,0,0
2022-07-18T01:29:00+09:00,0.5,���k��,1.2,���k��,23,95.9,0,0,0,0
2022-07-18T01:30:00+09:00,0.4,���k��,1.1,��,23,95.8,0,0,0,0
2022-07-18T01:31:00+09:00,0.3,���k��,1,��,23,95.8,0,0,0,0
2022-07-18T01:32:00+09:00,0.3,���k��,1,��,23.1,96,0,0,0,0
2022-07-18T01:33:00+09:00,0.4,��,1,��,23.2,96,0,0,0,0
2022-07-18T01:34:00+09:00,0.4,��,1.2,��,23.1,95.9,0,0,0,0
2022-07-18T01:35:00+09:00,0.4,���쓌,1.2,��,23,95.8,0,0,0,0
2022-07-18T01:36:00+09:00,0.4,�쓌,1.2,��,23.1,95.9,0,0,0,0
2022-07-18T01:37:00+09:00,0.4,�쓌,1.2,��,23.1,95.9,0,0,0,0
2022-07-18T01:38:00+09:00,0.5,�쓌,1.2,��,23,95.9,0,0,0,0
2022-07-18T01:39:00+09:00,0.5,��쓌,1.2,��,23.1,96,0,0,0,0
2022-07-18T01:40:00+09:00,0.5,��쓌,1.2,��,23.1,96,0,0,0,0
2022-07-18T01:41:00+09:00,0.6,�쓌,1.4,���k��,23,95.7,0,0,0,0
2022-07-18T01:42:00+09:00,0.6,�쓌,1.4,���k��,22.9,95.6,0,0,0,0
2022-07-18T01:43:00+09:00,0.6,���쓌,1.4,���k��,22.9,95.6,0,0,0,0
2022-07-18T01:44:00+09:00,0.6,���쓌,1.4,���k��,22.9,95.7,0,0,0,0
2022-07-18T01:45:00+09:00,0.6,���쓌,1.4,���k��,23,95.8,0,0,0,0
2022-07-18T01:46:00+09:00,0.6,��,1.4,���k��,23,95.8,0,0,0,0
2022-07-18T01:47:00+09:00,0.6,��,1.4,���k��,22.9,95.6,0,0,0,0
2022-07-18T01:48:00+09:00,0.7,��,1.4,���k��,22.9,95.6,0,0,0,0
2022-07-18T01:49:00+09:00,0.7,��,1.4,���k��,23,95.9,0,0,0,0
2022-07-18T01:50:00+09:00,0.6,��,1.4,���k��,23.1,96,0,0,0,0
2022-07-18T01:51:00+09:00,0.6,��,1.2,���k��,23.2,95.8,0,0,0,0
2022-07-18T01:52:00+09:00,0.6,���쓌,1.1,�쓌,23.1,95.7,0,0,0,0
2022-07-18T01:53:00+09:00,0.6,���쓌,1.1,�쓌,23.1,95.7,0,0,0,0
2022-07-18T01:54:00+09:00,0.5,���쓌,1.1,�쓌,23.3,95.8,0,0,0,0
2022-07-18T01:55:00+09:00,0.5,���쓌,1.1,�쓌,23.4,95.8,0,0,0,0
2022-07-18T01:56:00+09:00,0.4,���쓌,1.1,�쓌,23.3,95.5,0,0,0,0
2022-07-18T01:57:00+09:00,0.4,���쓌,1.1,�쓌,23.3,95.4,0,0,0,0
2022-07-18T01:58:00+09:00,0.4,���쓌,1.1,�쓌,23.3,95.2,0,0,0,0
2022-07-18T01:59:00+09:00,0.4,�쓌,1.1,�쓌,23.2,95.1,0,0,0,0
2022-07-18T02:00:00+09:00,0.5,�쓌,1.1,�쓌,23.1,95.1,0,0,0,0
2022-07-18T02:01:00+09:00,0.4,�쓌,1.1,�쓌,23.2,95.1,0,0,0,0
2022-07-18T02:02:00+09:00,0.5,�쓌,1.1,�쓌,23.2,95.3,0,0,0,0
2022-07-18T02:03:00+09:00,0.5,���쓌,1.2,�쓌,23.2,95.2,0,0,0,0
2022-07-18T02:04:00+09:00,0.6,���쓌,1.2,�쓌,23.1,95,0,0,0,0
2022-07-18T02:05:00+09:00,0.6,�쓌,1.2,�쓌,23.1,95,0,0,0,0
2022-07-18T02:06:00+09:00,0.7,�쓌,1.5,��쓌,23.1,95.1,0,0,0,0
2022-07-18T02:07:00+09:00,0.8,�쓌,1.5,��쓌,23.1,95.2,0,0,0,0
2022-07-18T02:08:00+09:00,0.7,�쓌,1.5,��쓌,23.1,95.3,0,0,0,0
2022-07-18T02:09:00+09:00,0.7,�쓌,1.5,��쓌,23.2,95.4,0,0,0,0
2022-07-18T02:10:00+09:00,0.7,�쓌,1.5,��쓌,23.1,95.3,0,0,0,0
2022-07-18T02:11:00+09:00,0.8,��쓌,1.7,��쓌,23,95.3,0,0,0,0
2022-07-18T02:12:00+09:00,0.8,��쓌,1.7,��쓌,23,95.5,0,0,0,0
2022-07-18T02:13:00+09:00,0.8,��쓌,1.7,��쓌,23,95.6,0,0,0,0
2022-07-18T02:14:00+09:00,0.8,��쓌,1.7,��쓌,23,95.6,0,0,0,0
2022-07-18T02:15:00+09:00,0.8,��쓌,1.7,��쓌,23,95.7,0,0,0,0
2022-07-18T02:16:00+09:00,0.8,��쓌,1.7,��쓌,23,95.7,0,0,0,0
2022-07-18T02:17:00+09:00,0.8,��쓌,1.7,��쓌,23,95.8,0,0,0,0
2022-07-18T02:18:00+09:00,0.8,��쓌,1.7,��쓌,23,95.8,0,0,0,0
2022-07-18T02:19:00+09:00,0.9,��쓌,1.7,��쓌,22.9,95.7,0,0,0,0
2022-07-18T02:20:00+09:00,0.8,��쓌,1.7,��쓌,22.9,95.8,0,0,0,0
2022-07-18T02:21:00+09:00,0.8,��쓌,1.7,��쓌,23,95.9,0,0,0,0
2022-07-18T02:22:00+09:00,0.8,��쓌,1.7,��쓌,23,95.9,0,0,0,0
2022-07-18T02:23:00+09:00,0.8,�쓌,1.7,��쓌,23,95.8,0,0,0,0
2022-07-18T02:24:00+09:00,0.7,�쓌,1.7,��쓌,23.2,96.1,0,0,0,0
2022-07-18T02:25:00+09:00,0.6,�쓌,1.7,��쓌,23.3,96,0,0,0,0
2022-07-18T02:26:00+09:00,0.6,�쓌,1.4,�쓌,23.1,95.6,0,0,0,0
2022-07-18T02:27:00+09:00,0.6,�쓌,1.4,�쓌,23.2,95.6,0,0,0,0
2022-07-18T02:28:00+09:00,0.5,�쓌,1.4,�쓌,23.2,95.4,0,0,0,0
2022-07-18T02:29:00+09:00,0.5,���쓌,1.4,�쓌,23.1,95.3,0,0,0,0
2022-07-18T02:30:00+09:00,0.5,���쓌,1.4,�쓌,23.1,95.2,0,0,0,0
2022-07-18T02:31:00+09:00,0.6,���쓌,1.7,���k��,23,95.2,0,0,0,0
2022-07-18T02:32:00+09:00,0.6,��,1.7,���k��,23,95.2,0,0,0,0
2022-07-18T02:33:00+09:00,0.7,��,1.7,���k��,22.9,95.2,0,0,0,0
2022-07-18T02:34:00+09:00,0.7,��,1.7,���k��,22.9,95.4,0,0,0,0
2022-07-18T02:35:00+09:00,0.8,��,1.7,���k��,23,95.5,0,0,0,0
2022-07-18T02:36:00+09:00,0.9,��,1.7,���k��,23.1,95.6,0,0,0,0
2022-07-18T02:37:00+09:00,0.9,��,1.7,���k��,23.1,95.6,0,0,0,0
2022-07-18T02:38:00+09:00,0.9,��,1.7,���k��,23.1,95.5,0,0,0,0
2022-07-18T02:39:00+09:00,0.9,���쓌,1.7,���k��,23.2,95.6,0,0,0,0
2022-07-18T02:40:00+09:00,0.9,���쓌,1.7,���k��,23.3,95.6,0,0,0,0
2022-07-18T02:41:00+09:00,0.9,���쓌,1.6,��,23.1,95.3,0,0,0,0
2022-07-18T02:42:00+09:00,0.8,���쓌,1.6,��,23.1,95.2,0,0,0,0
2022-07-18T02:43:00+09:00,0.9,���쓌,1.7,���k��,23.1,95.1,0,0,0,0
2022-07-18T02:44:00+09:00,0.9,���쓌,2,��,23,95,0,0,0,0
2022-07-18T02:45:00+09:00,0.9,��,2,��,23,95,0,0,0,0
2022-07-18T02:46:00+09:00,0.9,��,2,��,23,95.1,0,0,0,0
2022-07-18T02:47:00+09:00,0.9,��,2,��,23,95.2,0,0,0,0
2022-07-18T02:48:00+09:00,0.9,��,2,��,23,95.3,0,0,0,0
2022-07-18T02:49:00+09:00,0.9,���k��,2,��,23,95.4,0,0,0,0
2022-07-18T02:50:00+09:00,1,���k��,2,��,23,95.4,0,0,0,0
2022-07-18T02:51:00+09:00,1,���k��,2,��,23,95.4,0,0,0,0
2022-07-18T02:52:00+09:00,1,��,2,��,23,95.4,0,0,0,0
2022-07-18T02:53:00+09:00,1,��,2,��,23,95.5,0,0,0,0
2022-07-18T02:54:00+09:00,1,��,1.7,��,23.1,95.5,0,0,0,0
2022-07-18T02:55:00+09:00,0.9,��,1.7,��,23.1,95.5,0,0,0,0
2022-07-18T02:56:00+09:00,0.8,��,1.7,��,23.2,95.5,0,0,0,0
2022-07-18T02:57:00+09:00,0.8,���쓌,1.7,��,23.2,95.5,0,0,0,0
2022-07-18T02:58:00+09:00,0.7,���쓌,1.7,��,23.3,95.3,0,0,0,0
2022-07-18T02:59:00+09:00,0.7,���쓌,1.7,��,23.4,95.3,0,0,0,0
2022-07-18T03:00:00+09:00,0.6,���쓌,1.7,��,23.4,95.1,0,0,0,0
2022-07-18T03:01:00+09:00,0.6,���쓌,1.5,���쓌,23.3,94.2,0,0,0,0
2022-07-18T03:02:00+09:00,0.6,���쓌,1.5,���쓌,23.3,94.1,0,0,0,0
2022-07-18T03:03:00+09:00,0.6,���쓌,1.3,�쓌,23.3,94.1,0,0,0,0
2022-07-18T03:04:00+09:00,0.5,�쓌,1.3,�쓌,23.2,94.1,0,0,0,0
2022-07-18T03:05:00+09:00,0.5,�쓌,1.3,�쓌,23.2,94.2,0,0,0,0
2022-07-18T03:06:00+09:00,0.6,�쓌,1.3,�쓌,23.2,94.4,0,0,0,0
2022-07-18T03:07:00+09:00,0.6,�쓌,1.3,�쓌,23.2,94.4,0,0,0,0
2022-07-18T03:08:00+09:00,0.7,��쓌,1.3,�쓌,23.2,94.5,0,0,0,0
2022-07-18T03:09:00+09:00,0.7,��쓌,1.3,�쓌,23.1,94.5,0,0,0,0
2022-07-18T03:10:00+09:00,0.6,��쓌,1.3,�쓌,23.1,94.8,0,0,0,0
2022-07-18T03:11:00+09:00,0.6,��쓌,1.4,��쓌,23,94.8,0,0,0,0
2022-07-18T03:12:00+09:00,0.6,��쓌,1.4,��쓌,23,95,0,0,0,0
2022-07-18T03:13:00+09:00,0.5,��쓌,1.4,��쓌,23,95.2,0,0,0,0
2022-07-18T03:14:00+09:00,0.5,��쓌,1.4,��쓌,23,95.4,0,0,0,0
2022-07-18T03:15:00+09:00,0.5,��,1.4,��쓌,23,95.4,0,0,0,0
2022-07-18T03:16:00+09:00,0.5,��,1.4,��쓌,23,95.5,0,0,0,0
2022-07-18T03:17:00+09:00,0.5,��,1.4,��쓌,23,95.6,0,0,0,0
2022-07-18T03:18:00+09:00,0.4,��,1.4,��쓌,23.1,95.7,0,0,0,0
2022-07-18T03:19:00+09:00,0.4,��,1.4,��쓌,23.1,95.6,0,0,0,0
2022-07-18T03:20:00+09:00,0.5,��,1.4,��쓌,23,95.6,0,0,0,0
2022-07-18T03:21:00+09:00,0.5,��,1.4,��쓌,23,95.6,0,0,0,0
2022-07-18T03:22:00+09:00,0.5,��,1.4,��쓌,23,95.6,0,0,0,0
2022-07-18T03:23:00+09:00,0.5,��,1.4,��쓌,23.1,95.7,0,0,0,0
2022-07-18T03:24:00+09:00,0.5,��,1.4,��쓌,23.1,95.7,0,0,0,0
2022-07-18T03:25:00+09:00,0.6,��쓌,1.4,��쓌,23.1,95.7,0,0,0,0
2022-07-18T03:26:00+09:00,0.6,��쓌,1.4,��쓌,23.1,95.6,0,0,0,0
2022-07-18T03:27:00+09:00,0.6,�쓌,1.4,��쓌,23.1,95.5,0,0,0,0
2022-07-18T03:28:00+09:00,0.7,���쓌,1.4,��쓌,23.1,95.4,0,0,0,0
2022-07-18T03:29:00+09:00,0.7,���쓌,1.4,��쓌,23.1,95.3,0,0,0,0
2022-07-18T03:30:00+09:00,0.7,��,1.4,���k��,23.1,95.3,0,0,0,0
2022-07-18T03:31:00+09:00,0.7,��,1.4,���k��,23.1,95.2,0,0,0,0
2022-07-18T03:32:00+09:00,0.7,��,1.4,���k��,23.2,95.3,0,0,0,0
2022-07-18T03:33:00+09:00,0.8,��,1.4,���k��,23.2,95.2,0,0,0,0
2022-07-18T03:34:00+09:00,0.8,���쓌,1.5,��,23.1,95.1,0,0,0,0
2022-07-18T03:35:00+09:00,0.7,���쓌,1.5,��,23.1,95,0,0,0,0
2022-07-18T03:36:00+09:00,0.7,�쓌,1.5,��,23.2,95.1,0,0,0,0
2022-07-18T03:37:00+09:00,0.7,��쓌,1.5,��,23.2,95.1,0,0,0,0
2022-07-18T03:38:00+09:00,0.6,��쓌,1.5,��,23.2,95,0,0,0,0
2022-07-18T03:39:00+09:00,0.6,��,1.5,��,23.2,95.1,0,0,0,0
2022-07-18T03:40:00+09:00,0.6,��,1.8,��,23.1,95,0,0,0,0
2022-07-18T03:41:00+09:00,0.7,��,1.8,��,23.1,94.9,0,0,0,0
2022-07-18T03:42:00+09:00,0.7,��,1.8,��,23.1,94.9,0,0,0,0
2022-07-18T03:43:00+09:00,0.7,��,1.8,��,23.1,95.1,0,0,0,0
2022-07-18T03:44:00+09:00,0.8,��,1.8,��,23.1,95.2,0,0,0,0
2022-07-18T03:45:00+09:00,0.8,��,1.8,��,23,95.2,0,0,0,0
2022-07-18T03:46:00+09:00,0.8,��,1.8,��,23.1,95.3,0,0,0,0
2022-07-18T03:47:00+09:00,0.8,��쓌,1.8,��,23.1,95.3,0,0,0,0
2022-07-18T03:48:00+09:00,0.8,��쓌,1.8,��,23.1,95.3,0,0,0,0
2022-07-18T03:49:00+09:00,0.7,��쓌,1.8,��,23.1,95.2,0,0,0,0
2022-07-18T03:50:00+09:00,0.7,��쓌,1.8,�쓌,23.2,95.4,0,0,0,0
2022-07-18T03:51:00+09:00,0.5,��쓌,1.8,�쓌,23.3,95.5,0,0,0,0
2022-07-18T03:52:00+09:00,0.5,�쓌,1.8,�쓌,23.3,95.4,0,0,0,0
2022-07-18T03:53:00+09:00,0.4,�쓌,1.8,�쓌,23.4,95.3,0,0,0,0
2022-07-18T03:54:00+09:00,0.3,�쓌,1.7,�쓌,23.4,95.2,0,0,0,0
2022-07-18T03:55:00+09:00,0.4,��,1.8,�k��,23.4,94.8,0,0,0,0
2022-07-18T03:56:00+09:00,0.4,�k,1.8,�k��,23.4,94.5,0,0,0,0
2022-07-18T03:57:00+09:00,0.5,�k�k��,1.8,�k��,23.4,94.3,0,0,0,0
2022-07-18T03:58:00+09:00,0.6,�k�k��,1.8,�k��,23.4,94.2,0,0,0,0
2022-07-18T03:59:00+09:00,0.7,�k��,1.8,�k��,23.4,94.2,0,0,0,0
2022-07-18T04:00:00+09:00,0.8,�k��,1.8,�k��,23.6,94.2,0,0,0,0
2022-07-18T04:01:00+09:00,0.8,�k��,1.8,�k��,23.6,94.1,0,0,0,0
2022-07-18T04:02:00+09:00,0.9,���k��,1.8,�k��,23.6,94,0,0,0,0
2022-07-18T04:03:00+09:00,1,���k��,1.8,�k��,23.6,94.1,0,0,0,0
2022-07-18T04:04:00+09:00,1,���k��,1.8,�k��,23.6,94.2,0,0,0,0
2022-07-18T04:05:00+09:00,0.9,���k��,1.5,���k��,23.7,94.4,0,0,0,0
2022-07-18T04:06:00+09:00,0.9,��,1.5,���k��,23.6,94.4,0,0,0,0
2022-07-18T04:07:00+09:00,0.9,��,1.6,���k��,23.7,94.5,0,0,0,0
2022-07-18T04:08:00+09:00,0.9,��,1.6,���k��,23.6,94.6,0,0,0,0
2022-07-18T04:09:00+09:00,0.9,���k��,1.6,���k��,23.6,94.8,0,0,0,0
2022-07-18T04:10:00+09:00,0.9,���k��,1.6,���k��,23.6,95,0,0,0,0
2022-07-18T04:11:00+09:00,0.9,���k��,1.6,���k��,23.6,95.1,0,0,0,0
2022-07-18T04:12:00+09:00,0.9,���k��,1.6,���k��,23.6,95.2,0,0,0,0
2022-07-18T04:13:00+09:00,1,���k��,1.6,���k��,23.6,95.3,0,0,0,0
2022-07-18T04:14:00+09:00,1,���k��,1.6,���k��,23.6,95.4,0,0,0,0
2022-07-18T04:15:00+09:00,1,���k��,1.6,���k��,23.5,95.4,0,0,0,0
2022-07-18T04:16:00+09:00,0.9,���k��,1.6,���k��,23.5,95.5,0,0,0,0
2022-07-18T04:17:00+09:00,0.8,���k��,1.6,�k��,23.5,95.6,0,0,0,0
2022-07-18T04:18:00+09:00,0.7,���k��,1.5,�k��,23.5,95.7,0,0,0,0
2022-07-18T04:19:00+09:00,0.8,���k��,1.5,�k��,23.6,95.8,0,0,0,0
2022-07-18T04:20:00+09:00,0.7,���k��,1.5,�k��,23.5,95.8,0,0,0,0
2022-07-18T04:21:00+09:00,0.6,���k��,1.5,�k��,23.5,95.6,0,0,0,0
2022-07-18T04:22:00+09:00,0.6,�k��,1.5,�k��,23.2,95.4,0,0,0,0
2022-07-18T04:23:00+09:00,0.5,�k��,1.4,�k��,23.2,95.3,0,0,0,0
2022-07-18T04:24:00+09:00,0.4,�k��,1.1,�k��,23.2,95.5,0,0,0,0
2022-07-18T04:25:00+09:00,0.4,���k��,1.1,�k��,23.3,95.7,0,0,0,0
2022-07-18T04:26:00+09:00,0.4,���k��,1.1,�k��,23.4,95.8,0,0,0,0
2022-07-18T04:27:00+09:00,0.4,���k��,1.1,�k��,23.5,95.8,0,0,0,0
2022-07-18T04:28:00+09:00,0.3,��,1.1,�k��,23.5,95.7,0,0,0,0
2022-07-18T04:29:00+09:00,0.2,�É�,0.8,���k��,23.4,95.5,0,0,0,0
2022-07-18T04:30:00+09:00,0.2,�É�,0.7,�k��,23.3,95.3,0,0,0,0
2022-07-18T04:31:00+09:00,0.2,�É�,0.7,�k��,23.3,95.5,0,0,0,0
2022-07-18T04:32:00+09:00,0.2,�É�,0.5,���쐼,23.3,95.5,0,0,0,0
2022-07-18T04:33:00+09:00,0.2,�É�,0.5,���쐼,23.2,95.2,0,0,0,0
2022-07-18T04:34:00+09:00,0.2,�É�,0.5,���쐼,23.1,95.2,0,0,0,0
2022-07-18T04:35:00+09:00,0.2,�É�,0.5,���쐼,23.2,95.4,0,0,0,0
2022-07-18T04:36:00+09:00,0.1,�É�,0.5,�k�k��,23.2,95.5,0,0,0,0
2022-07-18T04:37:00+09:00,0.2,�É�,0.5,�k�k��,23.1,95.5,0,0,0,0
2022-07-18T04:38:00+09:00,0.2,�É�,0.6,�k��,23.1,95.4,0,0,0,0
2022-07-18T04:39:00+09:00,0.2,�É�,0.6,�k��,23.1,95.6,0,0,0,0
2022-07-18T04:40:00+09:00,0.2,�É�,0.6,�k��,23,95.4,0,0,0,0
2022-07-18T04:41:00+09:00,0.2,�É�,0.6,�k��,23.1,95.7,0,0,0,0
2022-07-18T04:42:00+09:00,0.2,�É�,0.6,�k��,23.1,95.7,0,0,0,0
2022-07-18T04:43:00+09:00,0.2,�É�,0.6,�k��,23.1,95.8,0,0,0,0
2022-07-18T04:44:00+09:00,0.2,�É�,0.6,�k��,23.1,95.8,0,0,0,0
2022-07-18T04:45:00+09:00,0.2,�É�,0.6,�k��,23.1,95.8,0,0,0,0
2022-07-18T04:46:00+09:00,0.2,�É�,0.6,�k��,23,95.7,0,0,0,0
2022-07-18T04:47:00+09:00,0.2,�É�,0.6,�k��,23,95.8,0,0,0,0
2022-07-18T04:48:00+09:00,0.2,�É�,0.6,��,23,95.9,0,0,0,0
2022-07-18T04:49:00+09:00,0.2,�É�,0.6,��,23,96,0,0,0,0
2022-07-18T04:50:00+09:00,0.2,�É�,0.6,��,23.1,96.1,0,0,0,0
2022-07-18T04:51:00+09:00,0.2,�É�,0.6,��,23.1,96.1,0,0,0,0
2022-07-18T04:52:00+09:00,0.1,�É�,0.5,���k��,23.2,96.2,0,0,0,0
2022-07-18T04:53:00+09:00,0.1,�É�,0.5,���k��,23.3,96.3,0,0,0,0
2022-07-18T04:54:00+09:00,0.1,�É�,0.5,���k��,23.2,96.1,0,0,0,0
2022-07-18T04:55:00+09:00,0.1,�É�,0.4,��,23.1,95.9,0,0,0,0
2022-07-18T04:56:00+09:00,0.1,�É�,0.4,��,23.1,95.8,0,0,0,0
2022-07-18T04:57:00+09:00,0,�É�,0.4,��,23.2,96,0,0,0,0
2022-07-18T04:58:00+09:00,0.1,�É�,0.4,��,23.4,96.1,0,0,0,0
2022-07-18T04:59:00+09:00,0.1,�É�,0.6,���쐼,23.3,95.9,0,0,0,0
2022-07-18T05:00:00+09:00,0.1,�É�,0.7,��쐼,23.1,95.5,0,0,0,0
2022-07-18T05:01:00+09:00,0.2,�É�,0.7,��쐼,23.2,95.6,0,0,0,0
2022-07-18T05:02:00+09:00,0.2,�É�,0.7,��쐼,23.3,95.8,0,0,0,0
2022-07-18T05:03:00+09:00,0.2,�É�,0.7,��쐼,23.3,95.7,0,0,0,0
2022-07-18T05:04:00+09:00,0.3,�쐼,1,�쐼,23.3,95.6,0,0,0,0
2022-07-18T05:05:00+09:00,0.3,��쐼,1,�쐼,23.2,95.4,0,0,0,0
2022-07-18T05:06:00+09:00,0.4,��쐼,1,�쐼,23.1,95.3,0,0,0,0
2022-07-18T05:07:00+09:00,0.4,��쐼,1,�쐼,23.1,95.3,0,0,0,0
2022-07-18T05:08:00+09:00,0.4,��쐼,1,�쐼,23.2,95.6,0,0,0,0
2022-07-18T05:09:00+09:00,0.4,��쐼,1,�쐼,23.1,95.6,0,0,0,0
2022-07-18T05:10:00+09:00,0.4,��쐼,1,�쐼,23.1,95.7,0,0,0,0
2022-07-18T05:11:00+09:00,0.3,��쐼,1,�쐼,23.1,95.7,0,0,0,0
2022-07-18T05:12:00+09:00,0.3,��쐼,1,�쐼,23,95.6,0,0,0,0
2022-07-18T05:13:00+09:00,0.3,��,1,�쐼,23,95.7,0,0,0,0
2022-07-18T05:14:00+09:00,0.2,�É�,0.9,��쐼,23.1,95.9,0,0,0,0
2022-07-18T05:15:00+09:00,0.2,�É�,0.9,��쐼,23.2,96,0,0,0,0
2022-07-18T05:16:00+09:00,0.2,�É�,0.8,�쓌,23,95.8,0,0,0,0
2022-07-18T05:17:00+09:00,0.3,��쓌,1,��,22.9,95.6,0,0,0,0
2022-07-18T05:18:00+09:00,0.3,�쓌,1,��,22.9,95.7,0,0,0,0
2022-07-18T05:19:00+09:00,0.4,���쓌,1,��,22.9,95.8,0,0,0,0
2022-07-18T05:20:00+09:00,0.5,���쓌,1,��,22.9,95.9,0,0,0,0
2022-07-18T05:21:00+09:00,0.5,��,1,��,22.9,95.9,0,0,0,0
2022-07-18T05:22:00+09:00,0.5,��,1,��,23,96.1,0,0,0,0
2022-07-18T05:23:00+09:00,0.5,��,1,��,22.9,96.1,0,0,0,0
2022-07-18T05:24:00+09:00,0.6,��,1.1,���k��,22.9,96,0,0,0,0
2022-07-18T05:25:00+09:00,0.6,���k��,1.1,���k��,22.8,96,0,0,0,0
2022-07-18T05:26:00+09:00,0.6,���k��,1.1,���k��,22.8,96.1,0,0,0,0
2022-07-18T05:27:00+09:00,0.5,���k��,1.1,���k��,22.9,96.2,0,0,0,0
2022-07-18T05:28:00+09:00,0.5,���k��,1.1,���k��,23,96.4,0,0,0,0
2022-07-18T05:29:00+09:00,0.4,���k��,1.1,���k��,23.2,96.5,0,0,0,0
2022-07-18T05:30:00+09:00,0.4,��,1.1,���k��,23.2,96.5,0,0,0,0
2022-07-18T05:31:00+09:00,0.3,��,1.1,���k��,23.1,96.3,0,0,0,0
2022-07-18T05:32:00+09:00,0.3,��,1.1,���k��,23.1,96.1,0,0,0,0
2022-07-18T05:33:00+09:00,0.3,��,1.1,���k��,23.1,96,0,0,0,0
2022-07-18T05:34:00+09:00,0.3,���쓌,1,���k��,23,95.9,0,0,0,0
2022-07-18T05:35:00+09:00,0.3,���쓌,0.9,���쓌,23,95.8,0,0,0,0
2022-07-18T05:36:00+09:00,0.3,���쓌,1.1,�쓌,23,95.8,0,0,0,0
2022-07-18T05:37:00+09:00,0.4,�쓌,1.4,�쓌,22.9,95.9,0,0,0,0
2022-07-18T05:38:00+09:00,0.4,�쓌,1.4,�쓌,23,95.9,0,0,0,0
2022-07-18T05:39:00+09:00,0.5,�쓌,1.4,�쓌,23,96,0,0,0,0
2022-07-18T05:40:00+09:00,0.5,�쓌,1.4,�쓌,23,96,0,0,0,0
2022-07-18T05:41:00+09:00,0.6,���쓌,1.5,��쓌,23,95.9,0,0,0,0
2022-07-18T05:42:00+09:00,0.7,�쓌,1.6,��쓌,23,95.9,0,0,0,0
2022-07-18T05:43:00+09:00,0.8,�쓌,2.1,�쓌,23,95.9,0,0,0,0
2022-07-18T05:44:00+09:00,0.9,�쓌,2.1,�쓌,22.9,95.9,0,0,0,0
2022-07-18T05:45:00+09:00,1,�쓌,2.4,�쓌,22.9,95.9,0,0,0,0
2022-07-18T05:46:00+09:00,1,�쓌,2.4,�쓌,22.9,96,0,0,0,0
2022-07-18T05:47:00+09:00,1,�쓌,2.4,�쓌,23,96.1,0,0,0,0
2022-07-18T05:48:00+09:00,1.1,�쓌,2.4,�쓌,22.9,96.1,0,0,0,0
2022-07-18T05:49:00+09:00,1.1,��쓌,2.4,�쓌,22.9,96,0,0,0,0
2022-07-18T05:50:00+09:00,1.1,��쓌,2.4,�쓌,22.9,96,0,0,0,0
2022-07-18T05:51:00+09:00,1.1,��쓌,2.4,�쓌,22.8,96,0,0,0,0
2022-07-18T05:52:00+09:00,1,��쓌,2.4,�쓌,22.8,96.1,0,0,0,0
2022-07-18T05:53:00+09:00,0.9,��쓌,2.4,�쓌,22.8,96.2,0,0,0,0
2022-07-18T05:54:00+09:00,0.7,��쓌,2.4,�쓌,22.9,96.2,0,0,0,0
2022-07-18T05:55:00+09:00,0.6,��쓌,1.6,���쓌,23,96.4,0,0,0,0
2022-07-18T05:56:00+09:00,0.6,��,1.5,��쓌,23.1,96.6,0,0,0,0
2022-07-18T05:57:00+09:00,0.5,��,1.5,��쓌,23.1,96.4,0,0,0,0
2022-07-18T05:58:00+09:00,0.5,��,1.5,��쓌,23.2,96.5,0,0,0,0
2022-07-18T05:59:00+09:00,0.4,��,1.3,��,23.2,96.3,0,0,0,0
2022-07-18T06:00:00+09:00,0.4,��,1,�쓌,23.1,96,0,0,0,0
2022-07-18T06:01:00+09:00,0.4,��,0.8,��쓌,23,95.9,0,0,0,0
2022-07-18T06:02:00+09:00,0.4,��,0.8,��쓌,23,95.7,0,0,0,0
2022-07-18T06:03:00+09:00,0.4,��,0.8,��쓌,23,95.8,0,0,0,0
2022-07-18T06:04:00+09:00,0.4,��,0.8,��쓌,23.1,95.9,0,0,0,0
2022-07-18T06:05:00+09:00,0.4,��,1,�쓌,23,95.9,0,0,0,0
2022-07-18T06:06:00+09:00,0.5,��,1.1,��쓌,23,95.8,0,0,0,0
2022-07-18T06:07:00+09:00,0.5,��쓌,1.1,��쓌,23,95.9,0,0,0,0
2022-07-18T06:08:00+09:00,0.6,��쓌,1.2,�쓌,23,95.9,0,0,0,0
2022-07-18T06:09:00+09:00,0.6,��쓌,1.2,�쓌,23,95.9,0,0,0,0
2022-07-18T06:10:00+09:00,0.6,�쓌,1.2,�쓌,23.1,96,0,0,0,0
2022-07-18T06:11:00+09:00,0.7,�쓌,1.2,�쓌,23.1,95.9,0,0,0,0
2022-07-18T06:12:00+09:00,0.7,�쓌,1.4,���쓌,23.2,95.9,0,0,0,0
2022-07-18T06:13:00+09:00,0.7,�쓌,1.6,�쓌,23.2,95.8,0,0,0,0
2022-07-18T06:14:00+09:00,0.7,�쓌,1.6,�쓌,23.2,95.8,0,0,0,0
2022-07-18T06:15:00+09:00,0.8,�쓌,1.6,�쓌,23.4,95.8,0,0,0,0
2022-07-18T06:16:00+09:00,0.8,�쓌,1.6,�쓌,23.3,95.5,0,0,0,0
2022-07-18T06:17:00+09:00,0.8,�쓌,1.8,�쓌,23.3,95.4,0,0,0,0
2022-07-18T06:18:00+09:00,0.9,�쓌,1.8,�쓌,23.3,95.3,0,0,0,0
2022-07-18T06:19:00+09:00,0.9,�쓌,1.8,�쓌,23.3,95.3,0,0,0,0
2022-07-18T06:20:00+09:00,0.9,�쓌,1.8,�쓌,23.3,95.2,0,0,0,0
2022-07-18T06:21:00+09:00,0.9,�쓌,1.8,�쓌,23.3,95.2,0,0,0,0
2022-07-18T06:22:00+09:00,0.9,���쓌,1.8,�쓌,23.3,95,0,0,0,0
2022-07-18T06:23:00+09:00,0.8,���쓌,1.8,�쓌,23.3,95.1,0,0,0,0
2022-07-18T06:24:00+09:00,0.9,���쓌,1.8,�쓌,23.4,95.3,0,0,0,0
2022-07-18T06:25:00+09:00,0.8,���쓌,1.8,�쓌,23.4,95.2,0,0,0,0
2022-07-18T06:26:00+09:00,0.8,���쓌,1.8,�쓌,23.3,95.1,0,0,0,0
2022-07-18T06:27:00+09:00,0.8,���쓌,1.6,�쓌,23.3,95,0,0,0,0
2022-07-18T06:28:00+09:00,0.7,�쓌,1.6,�쓌,23.4,95.1,0,0,0,0
2022-07-18T06:29:00+09:00,0.7,�쓌,1.5,��쓌,23.3,94.9,0,0,0,0
2022-07-18T06:30:00+09:00,0.7,�쓌,1.5,��쓌,23.2,94.9,0,0,0,0
2022-07-18T06:31:00+09:00,0.7,�쓌,1.5,��쓌,23.2,94.9,0,0,0,0
2022-07-18T06:32:00+09:00,0.7,��쓌,1.5,��쓌,23.2,95,0,0,0,0
2022-07-18T06:33:00+09:00,0.7,��쓌,1.5,��쓌,23.2,95.1,0,0,0,0
2022-07-18T06:34:00+09:00,0.7,��쓌,1.5,��쓌,23.2,95.2,0,0,0,0
2022-07-18T06:35:00+09:00,0.8,��쓌,1.5,��쓌,23.2,95.3,0,0,0,0